This is the latest recevied weather packets stored in our database for station/object W6UA-13. If no packets are shown the sender has not sent any weather packets the latest 10 day(s).
| Time | Temp. | Humidity | Pressure | Rain* | Wind** | Luminosity | Snow |
|---|---|---|---|---|---|---|---|
| 1777818884 | 12.78° C | 82% | 1013.4 hPa | 0 mm | - | 51 W/m² | - |
| 1777817984 | 12.78° C | 83% | 1013.3 hPa | 0 mm | - | 65 W/m² | - |
| 1777817084 | 12.22° C | 83% | 1013.2 hPa | 0 mm | - | 26 W/m² | - |
| 1777816184 | 12.22° C | 83% | 1012.9 hPa | 0 mm | - | 26 W/m² | - |
| 1777815284 | 12.22° C | 83% | 1012.8 hPa | 0 mm | - | 16 W/m² | - |
| 1777814384 | 12.22° C | 83% | 1012.8 hPa | 0 mm | - | 5 W/m² | - |
| 1777813484 | 12.22° C | 83% | 1012.5 hPa | 0 mm | - | 0 W/m² | - |
| 1777812584 | 12.22° C | 83% | 1012.3 hPa | 0 mm | - | 0 W/m² | - |
| 1777811684 | 12.22° C | 83% | 1012.3 hPa | 0 mm | - | 0 W/m² | - |
| 1777810784 | 12.22° C | 83% | 1012.2 hPa | 0 mm | - | 0 W/m² | - |
| 1777809884 | 12.22° C | 83% | 1012.1 hPa | 0 mm | - | 0 W/m² | - |
| 1777808984 | 12.22° C | 83% | 1012.2 hPa | 0 mm | - | 0 W/m² | - |
| 1777808084 | 12.22° C | 82% | 1012.1 hPa | 0 mm | - | 0 W/m² | - |
| 1777807184 | 12.22° C | 82% | 1012.2 hPa | 0 mm | - | 0 W/m² | - |
| 1777806285 | 12.22° C | 81% | 1012.3 hPa | 0 mm | - | 0 W/m² | - |
| 1777805385 | 12.22° C | 81% | 1012.2 hPa | 0 mm | - | 0 W/m² | - |
| 1777804485 | 12.22° C | 81% | 1012.2 hPa | 0 mm | - | 0 W/m² | - |
| 1777803584 | 12.78° C | 81% | 1012.1 hPa | 0 mm | - | 0 W/m² | - |
| 1777802685 | 12.78° C | 81% | 1012.2 hPa | 0 mm | - | 0 W/m² | - |
| 1777801785 | 12.78° C | 81% | 1012.2 hPa | 0 mm | - | 0 W/m² | - |
| 1777800885 | 12.78° C | 80% | 1012.2 hPa | 0 mm | - | 0 W/m² | - |
| 1777799985 | 12.78° C | 80% | 1012.3 hPa | 0 mm | - | 0 W/m² | - |
| 1777799085 | 12.78° C | 81% | 1012.3 hPa | 0 mm | - | 0 W/m² | - |
| 1777798185 | 12.78° C | 81% | 1012.5 hPa | 0 mm | - | 0 W/m² | - |
| 1777797285 | 12.78° C | 81% | 1012.8 hPa | 0 mm | - | 0 W/m² | - |
* Rain latest hour (hover to see other rain measurements)
** Current wind speed in m/s (hover to see current wind gust speed)